Starlink 36514

operational
NORAD ID: 67641 Int'l Des: 2026-020 Owner: SPXS Country: US Constellation: starlink
NOTLE

About Starlink 36514

Description loading...

Live Position

Loading 3D Globe...

Upcoming Passes

Altitude History

Altitude vs Time

uPlot chart will show altitude changes over time

Two-Line Element Set

1 67641U 26020AA 26047.66759401 .00531724 00000-0 23404-2 0 9998
2 67641 42.9962 269.4509 0002159 242.6568 117.4084 15.82338901 2774
Epoch: Feb 16, 2026 • Age: 9 hours

Current Status

Altitude 333.6 km
Velocity 7.71 km/s
Sub-Earth Point -40.37°S, 4.49°W
Launch Date Jan 30, 2026
Age 17 days
Type internet

Technical Details

Classification Payload
Mass 575.00 kg
Dry Mass 530.00 kg
Total Mass 575.00 kg
Length 0.30 m
Diameter 4.10 m
Span 29.00 m
Shape Box + pan
Manufacturer SPXS
Bus Type Starlink V2MO
Phase Status In Orbit
Owner/State SPXS/US

Large Constellations

Loading constellations...